Other Surface Observations
Issued by NWS

Home | Current Version | Previous Version | Text Only | Print | Product List | Glossary On
Versions: 1 2 3 4 5 6 7 8 9 10 11 12 13 14 15 16 17 18 19 20 21 22 23 24 25 26 27 28 29 30 31 32 33 34 35 36 37 38 39 40 41 42 43 44 45 46 47 48 49 50
000
SXUS52 KTAE 231318
OSOTAE
OSOTAE
North Florida/South Alabama/Southwest Georgia Weather Roundup
National Weather Service Tallahassee Florida
800 AM EST SUN NOV 23 2014

Note: "fair" indicates few or no clouds below 12,000 feet with no
significant weather and/or obstructions to visibility.

!FLZ017-115-028-034-025-231400
...North Florida...

CITY           SKY/WX    TMP DP  RH WIND       PRES   REMARKS
TALLAHASSEE    CLOUDY    70  67  90 SE15G22   29.93S FOG
APALACHICOLA   CLOUDY    71  67  87 SE14G24   29.91R FOG
PERRY          CLOUDY    69  68  97 SE6       29.96R
CROSS CITY       N/A     71  70  96 S7        29.96R
JACKSONVILLE   CLOUDY    69  69 100 E5        30.00F
$$

!FLZ112-006-005-002-011-231400
...Florida Panhandle...

CITY           SKY/WX    TMP DP  RH WIND       PRES   REMARKS
MARIANNA       LGT RAIN  64  64 100 E5        29.90S FOG
BONIFAY        CLOUDY    64  64 100 E5        29.88F FOG
PANAMA CITY NW CLOUDY    72  69  90 SE12G22   29.87S
TYNDALL AFB    CLOUDY    72  70  95 SE18G28   29.88S
TYND DRONE APT PTSUNNY   72  72 100 MISG      29.87S
DE FUNIAK SPR  RAIN      65  65 100 SE6       29.86F
EGLIN AFB      CLOUDY    67  67  97 SE13      29.84S FOG
DESTIN         CLOUDY    71  68  90 SE15      29.84S FOG
HURLBURT       DRIZZLE   68  64  88 E15       29.81F
CRESTVIEW      CLOUDY    66  66 100 E9        29.85F FOG
PENSACOLA      LGT RAIN  67  67 100 SE15      29.80F FOG
$$

!ALZ063-066-231400
...South Alabama...

CITY           SKY/WX    TMP DP  RH WIND       PRES   REMARKS
DOTHAN         CLOUDY    62  61  96 E9        29.92F FOG
OZARK CAIRNS   LGT RAIN  63  63 100 E7        29.88F FOG
FT RUCKER HELI LGT RAIN  63  61  93 VRB7      29.87F FOG
RUCKER HELI 3  LGT RAIN  63  63 100 E10       29.90F
RUCKER HELI 2  CLOUDY    62  61  96 E8        29.90F FOG
FLORALA APT    LGT RAIN  64  63  94 SE6       29.86F FOG
ANDALUSIA      CLOUDY    67  62  84 SE9       29.84F HAZE
TROY           CLOUDY    63  61  93 SE12      29.88F
EUFALA         CLOUDY    61  32  33 E8        29.93R HAZE
MOBILE         FOG       67  67 100 SE9       29.77S VSB 1
$$

!GAZ120>161-231400
...Southwest and South Central Georgia...

CITY           SKY/WX    TMP DP  RH WIND       PRES   REMARKS
THOMASVILLE    CLOUDY    64  64 100 SE5       29.96S
BAINBRIDGE     CLOUDY    64  63  94 E5        29.93S FOG
MOODY AFB      LGT RAIN  65  64  96 E7        29.97R
VALDOSTA       CLOUDY    68  66  93 S9        29.97R
MOULTRIE       DRIZZLE   63  63 100 E5        29.97R
BLAKELY        DRIZZLE   63  63 100 E5        29.93S
ALBANY         LGT RAIN  63  62  97 E3        29.97S
TIFTON         RAIN      60  60  99 E7        29.97F
FITZGERALD     RAIN      62  59  91 E9        30.01R
CORDELE        LGT RAIN  61  60  94 E13       29.98F
AMERICUS       RAIN      59  59 100 E12       29.98F
HOMERVILLE     CLOUDY    68  68 100 SE3       30.00R
$$

!GMZ750-755-770-775-231400
...Coastal and Buoy Obs...

STATION/POSITION TIME  TEMP    WIND        PRES    VSBY  WAVE
                       AIR SEA DIR/SP/G                  HT/PER
                 (UTC) (F)     (DEG/KT/KT) (MB)    (MI)  (FT/S)
KEATON BEACH     1300   71     140/ 18/ 21 1014.6R
CEDAR KEY        1257   64     150/ 12/ 13 1015.0R
C TOWER          1300   70     150/ 19/ 20 1012.4R
APALACHICOLA BUO 1300   72 70  160/ 21/ 27 1012.1R         8/ 8
PANAMA CITY BUOY 1151   78 76  180/ 21/ 27 1011.2         11/ 8
MOBILE BUOY      1212   75 73  170/ 19/ 23 1008.2          7/ 8
ORANGE BCH AL BU 1300   72 67  150/ 17/ 19 1007.4F         7/ 8
$$



USA.gov is the U.S. government's official web portal to all federal, state and local government web resources and services.